Regional Weather Roundup
Issued by NWS State College, PA

Home | Current Version | Previous Version | Graphics & Text | Print | Product List | Glossary On
Versions: 1 2 3 4 5 6 7 8 9 10 11 12 13 14 15 16 17 18 19 20 21 22 23 24 25 26 27 28 29 30 31 32 33 34 35 36 37 38 39 40 41 42 43 44 45 46 47 48 49 50
000
ASUS41 KCTP 241310
RWRCTP

REGIONAL WEATHER ROUNDUP
NATIONAL WEATHER SERVICE STATE COLLEGE PA
900 AM EDT SAT JUN 24 2017

Note: "fair" indicates few or no clouds below 12,000 feet with no
significant weather and/or obstructions to visibility.

* = STATION THAT DOES NOT REPORT PRECIPITATION /E.G. RAIN...SNOW...ETC/
    THUNDER OR FOG.

PAZ002>004-007>009-013>016-020>023-029>032-241400-
WESTERN PENNSYLVANIA

CITY           SKY/WX    TMP DP  RH WIND       PRES   REMARKS
ERIE           PTSUNNY   70  58  65 W13       29.80R
MEADVILLE      SUNNY     67  61  81 W8        29.85R
FRANKLIN*      SUNNY     66  59  77 W9        29.86R
NEW CASTLE     FAIR      68  60  75 W9        29.87R
BEAVER COUNTY  SUNNY     66  61  82 W7        29.88
BUTLER*        SUNNY     70  63  78 W8        29.87R
PITTSBURGH INT MOSUNNY   68  61  78 W9        29.87R
PITTSBURGH     SUNNY     68  60  75 W10       29.87R
INDIANA*       CLOUDY    68  64  88 NW10      29.87R
LATROBE        MOSUNNY   68  66  94 W13       29.88R
WASHINGTON CO* MOSUNNY   66  63  88 SW8       29.92R
$$

PAZ004>006-010>012-017>019-024>028-033>037-041-042-045-046-049>053-241400-
CENTRAL PENNSYLVANIA

CITY           SKY/WX    TMP DP  RH WIND       PRES   REMARKS
BRADFORD       SUNNY     66  58  75 W9        29.82R
DUBOIS         CLOUDY    68  61  78 NW9       29.84R
CLEARFIELD     CLOUDY    68  61  78 NW15      29.83R
JOHNSTOWN      PTSUNNY   64  60  87 W15G23    29.87R
ALTOONA        MOSUNNY   69  62  78 NW15      29.84R
STATE COLLEGE  SUNNY     70  61  73 NW9       29.80R
WILLIAMSPORT   SUNNY     76  62  62 W9        29.72R
SELINSGROVE    MOSUNNY   75  66  73 W8        29.74R
FT INDIANTOWN  PTSUNNY   75  68  78 W9        29.72R
CAPITAL CITY   MOSUNNY   77  65  66 W12G24    29.74R
HARRISBURG     MOSUNNY   77  68  73 W14       29.73R
YORK           SUNNY     76  69  79 W14G20    29.75R
$$

PAZ038>040-043-044-047-048-054-055-060>062-067>071-241400-
EASTERN PENNSYLVANIA

CITY           SKY/WX    TMP DP  RH WIND       PRES   REMARKS
SCRANTON       PTSUNNY   69  61  75 VRB3      29.72R
MOUNT POCONO   MOSUNNY   67  58  72 NW13G25   29.72R
ALLENTOWN      MOSUNNY   77  69  76 W10       29.67R
QUAKERTOWN*    MOSUNNY   75  70  83 NW7       29.69R
READING        MOSUNNY   77  71  82 W13       29.69R
LANCASTER      MOSUNNY   76  70  82 W18G25    29.72R
COATESVILLE    MOSUNNY   73  70  88 W18G25    29.73R
POTTSTOWN      MOSUNNY   74  71  91 NW10      29.70R
BLUE BELL      PTSUNNY   72  70  94 W6        29.70R
DOYLESTOWN     MOSUNNY   75  71  87 NW8G20    29.67R
WILLOW GROVE   NOT AVBL
NORTH PHILA    CLOUDY    77  71  82 NW12      29.68R
PHILADELPHIA   MOSUNNY   76  69  79 W13       29.69R
$$




USA.gov is the U.S. government's official web portal to all federal, state and local government web resources and services.